Back to catalog

CZ-6A DEB

AliveSSO
NORAD 64499·DEBRIS·🇨🇳 China

Launched Nov 11, 2022 from Taiyuan Satellite Launch Center

Loading…

Next Passes (next 24 hours)

TLE

FreshSource: Space-Track

Epoch: Sep 14, 2026, 10:21 UTC

1 64499U 22151AJE 26257.43152425  .00001659  00000-0  92737-3 0  9993
2 64499  98.8890 251.0116 0088310 119.2747 241.7287 14.10177461176404

Track CZ-6A DEB in real time with AllMySat

Download on the App Store